Hundvaag 1 weather for Mar 1992
Month no. 57
Obs.
Da.
Temp. Dew Point Precip. Wind
Speed
Wind gusts Cloud cover Press. Humidity Wind dir. Sunny OPT
01.03.1992 5,6   4,7                
02.03.1992 5,4   22,0             1  
03.03.1992 4,0   17,3             1  
04.03.1992 1,3   6,1                
05.03.1992 5,3   3,3                
06.03.1992 5,4   2,7                
07.03.1992 6,8   4,2                
08.03.1992 6,8   9,0                
09.03.1992 3,5   2,7                
10.03.1992 5,1   21,2                
11.03.1992 1,0   13,4                
12.03.1992 3,7   11,0                
13.03.1992 0,0   7,8                
14.03.1992 -2,8   2,5                
15.03.1992 -0,9   5,7             1  
16.03.1992 -1,2   2,4             1  
17.03.1992 5,3   1,1                
18.03.1992 5,6   3,5                
19.03.1992 4,1   25,2             1  
20.03.1992 5,8   8,9                
21.03.1992 8,9   6,0                
22.03.1992 4,9   24,3                
23.03.1992 1,4   5,7             1  
24.03.1992 0,9   0,0             1  
25.03.1992 2,8   0,0                
26.03.1992 3,2   9,1                
27.03.1992 1,8   1,5             1  
28.03.1992 0,8   1,0             1  
29.03.1992 3,1   0,0             1  
30.03.1992 -2,9   0,0             1  
31.03.1992 0,7   0,0                
Avrg/Sum 3,1   222,4             11